#timestamp,LO_Frequency,Hit 
1504666815.5,286047015.4,N
1504666835.3,286047015.9,N
1504666855.1,286047016.5,N
1504666875.9,286047017.7,N
1504666895.7,286047018.5,N
1504666915.5,286047019.7,N
1504666935.4,286047022.8,N
1504666955.2,286047020.5,N
1504666975.0,286047022.8,N
1504666975.9,286047022.8,N
1504666995.7,286047024.2,N
1504667015.6,286047025.9,N
1504667035.4,286047026.4,N
1504667055.2,286047023.7,N
1504667075.1,286047022.1,N
1504667076.0,286047022.1,N
1504667095.8,286047022.8,N
1504667115.6,286047022.6,N
1504667135.5,286047025.2,N
1504667155.3,286047025.8,N
1504667175.1,286047023.7,N
1504667195.9,286047028.0,N
1504667215.7,286047027.9,N
1504667235.5,286047029.5,P
1504667255.4,286047008.5,N
1504667275.2,286047006.7,N
1504667295.0,286047008.3,N
1504667295.9,286047008.3,N
1504667315.8,286047009.3,N
1504667335.6,286047006.2,N
1504667355.4,286047006.5,N
1504667375.3,286047008.7,N
1504667395.1,286047007.1,N
1504667396.0,286047007.1,N
1504667415.8,286047009.2,N
1504667435.7,286047010.3,N
1504667455.5,286047007.7,N
1504667475.3,286047009.2,N
1504667495.1,286047007.8,N
1504667515.9,286047013.2,N
1504667535.7,286047010.8,N
1504667555.5,286047010.0,N
1504667575.4,286047013.5,N
1504667595.2,286047015.6,P
1504667615.0,286047000.1,N
1504667616.0,286047000.1,N
1504667635.8,286047000.0,N
1504667655.6,286047001.1,N
1504667675.4,286046997.0,N
1504667695.3,286047002.8,N
1504667715.1,286047001.1,N
1504667735.8,286046996.6,N
1504667755.7,286046999.0,N
1504667775.5,286046997.2,N
1504667795.3,286046995.2,N
1504667815.2,286046993.5,N
1504667835.9,286046992.7,N
1504667855.7,286046991.0,N
1504667875.6,286046991.3,N
1504667895.4,286046991.1,N
1504667915.2,286046989.5,N
1504667935.0,286046986.9,N
1504667936.0,286046986.9,N
1504667955.8,286046986.7,N
1504667975.6,286046986.7,N
1504667995.4,286046983.1,N
1504668015.3,286046983.4,N
1504668035.1,286046977.4,N
1504668055.8,286046978.1,N
1504668075.7,286046979.9,N
1504668095.5,286046979.8,N
1504668115.3,286046978.5,N
1504668135.2,286046977.2,N
1504668155.9,286046974.3,N
1504668175.7,286046973.7,P
1504668195.6,286046984.7,N
1504668215.4,286046984.0,N
1504668235.2,286046983.8,N
1504668255.1,286046986.8,N
1504668256.0,286046986.8,N
1504668275.8,286046983.4,P
1504668295.6,286046995.8,P
1504668315.5,286046997.9,N
1504668335.3,286046999.0,N
1504668355.1,286046999.7,N
1504668375.9,286047004.2,N
1504668395.7,286047004.1,N
1504668415.5,286047004.4,N
1504668435.4,286047003.6,N
1504668455.2,286047004.0,N
1504668475.0,286047004.2,N
1504668475.9,286047004.2,N
1504668495.8,286047003.3,N
1504668515.6,286047005.3,N
1504668535.4,286047005.2,N
1504668555.2,286047001.6,N
1504668575.1,286047000.6,N
1504668576.0,286047000.6,N
1504668595.8,286046999.1,N
1504668615.6,286046997.7,N
1504668635.5,286046997.1,N
1504668655.3,286046997.3,N
1504668675.1,286047001.1,N
1504668695.9,286047004.3,N
1504668715.7,286047003.3,N
1504668735.5,286047008.5,N
1504668755.4,286047009.7,N
1504668775.2,286047008.7,N
1504668795.0,286047011.9,N
1504668795.9,286047011.9,N
1504668815.8,286047015.6,N
1504668835.6,286047015.9,P
1504668855.4,286047013.2,N
1504668875.3,286047013.4,N
1504668895.1,286047015.3,P
1504668915.8,286047003.8,N
1504668935.7,286047003.4,N
1504668955.5,286047005.7,N
1504668975.3,286047004.9,N
1504668995.2,286047005.1,N
1504669015.9,286047005.9,N
1504669035.7,286047008.6,N
1504669055.6,286047006.7,N
1504669075.4,286047010.6,N
1504669095.2,286047010.7,P
1504669115.1,286047002.8,N
1504669116.0,286047002.8,N
1504669135.8,286047004.4,N
1504669155.6,286046998.5,N
1504669175.5,286047004.1,N
1504669195.3,286047001.9,N
1504669215.1,286046999.9,N
1504669235.9,286047004.3,N
1504669255.7,286047001.4,N
1504669275.5,286047005.3,N
1504669295.3,286047004.0,N
1504669315.2,286047004.3,N
1504669335.0,286047002.6,N
1504669335.9,286047002.6,N
1504669355.7,286047002.9,N
1504669375.6,286046999.8,N
1504669395.4,286046999.9,N
1504669415.2,286047001.7,N
1504669435.1,286047004.9,N
1504669436.0,286047004.9,N
1504669455.8,286047007.0,N
1504669475.6,286047005.7,N
1504669495.5,286047003.1,N
1504669515.3,286047007.3,N
1504669535.1,286047007.6,N
1504669555.9,286047007.1,N
1504669575.7,286047003.5,N
1504669595.5,286047001.4,N
1504669615.3,286046998.7,N
1504669635.2,286046998.8,N
1504669655.0,286047000.4,N
1504669655.9,286047000.4,N
1504669675.7,286047000.6,N
1504669695.6,286047000.8,N
1504669715.4,286047004.3,N
1504669735.2,286047004.1,N
1504669755.1,286046996.5,N
1504669756.0,286046996.5,N
1504669775.8,286046999.0,N
1504669795.6,286046998.2,N
1504669815.5,286046997.9,N
1504669835.3,286046995.6,N
1504669855.1,286046995.4,N
1504669875.9,286046997.4,N
1504669895.7,286046995.8,N
1504669915.5,286046996.4,N
1504669935.4,286046995.9,N
1504669955.2,286046993.5,N
1504669975.0,286046990.3,N
1504669975.9,286046990.3,N
1504669995.8,286046990.6,N
1504670015.6,286046985.9,N
1504670035.4,286046983.8,P
1504670055.3,286046984.1,N
1504670075.1,286046986.7,N
1504670076.0,286046986.7,N
1504670095.8,286046988.1,N
1504670115.7,286046988.9,N
1504670135.5,286046987.1,N
1504670155.3,286046983.8,P
1504670175.2,286046994.4,N
1504670195.9,286046993.0,N
1504670215.7,286046988.9,N
1504670235.6,286046989.1,N
1504670255.4,286046990.5,N
1504670275.2,286046991.0,N
1504670295.0,286046991.7,N
1504670295.9,286046991.7,N
1504670315.8,286046994.6,N
1504670335.6,286046991.8,N
1504670355.5,286046990.4,P
1504670375.3,286046998.5,P
1504670395.1,286046996.5,N
